Regional Weather Roundup
Issued by NWS

Home | Current Version | Previous Version | Text Only | Print | Product List | Glossary Off
Versions: 1 2 3 4 5 6 7 8 9 10 11 12 13 14 15 16 17 18 19 20 21 22 23 24 25 26 27 28 29 30 31 32 33 34 35 36 37 38 39 40 41 42 43 44 45 46 47 48 49 50

616
ASUS45 KBOU 261507
RWRCO

WEATHER ROUNDUP FOR COLORADO
NATIONAL WEATHER SERVICE DENVER/BOULDER CO
800 AM MST SUN FEB 26 2017

NOTE: "FAIR" INDICATES FEW OR NO CLOUDS BELOW 12000 FEET WITH NO
SIGNIFICANT WEATHER AND/OR OBSTRUCTIONS TO VISIBILITY.

COZ001>005-013-030-031-261600-
...NORTHWEST COLORADO...

CITY           SKY/WX    TMP DP  RH WIND       PRES   REMARKS
CRAIG          FAIR       3   0  87 CALM      29.93R
HAYDEN         FAIR       1  -6  71 SE7       29.89R WCI -11
MEEKER         FAIR       5   0  79 NE3       29.92R
MOUNT WERNER   NOT AVBL
STEAMBOAT SPGS FAIR       3  -2  79 CALM      29.89R
WALDEN         NOT AVBL
$$

COZ006>008-011-261600-
...WEST CENTRAL VALLEYS...

CITY           SKY/WX    TMP DP  RH WIND       PRES   REMARKS
GRAND JUNCTION FAIR      22  13  68 SE7       29.95R WCI  13
MONTROSE       FAIR      21  13  71 S6        29.96R WCI  13
EAGLE          SUNNY     12   3  67 CALM      29.94R
RIFLE          FAIR      16  11  80 CALM      29.96R
DELTA          FAIR      26   9  48 NE3       29.96R
NUCLA          FAIR      23  18  80 E8        29.96R WCI  14
$$

COZ017>023-064>068-261600-
...SOUTHWEST COLORADO...

CITY           SKY/WX    TMP DP  RH WIND       PRES   REMARKS
DURANGO        FAIR      23  12  62 E5        29.89R WCI  17
CORTEZ         FAIR      25  19  78 NE5       29.92R WCI  19
PAGOSA SPRINGS FAIR      19   6  59 NE5       29.87R WCI  12
TELLURIDE      FAIR      11   9  89 CALM      29.85R
WOLF CREEK PAS SNOW       3   1  92 SW10G16   29.79R VSB 1/2 WCI -12
$$

COZ009-010-012-014-032>034-037-058>063-261600-
...CENTRAL COLORADO...

CITY           SKY/WX    TMP DP  RH WIND       PRES   REMARKS
ASPEN          FAIR       7  -1  70 S5        29.85R WCI  -2
BUENA VISTA    FAIR      19  -8  29 NW12      29.77S WCI   7
COPPER MTN     FAIR       1 -15  46 MISG      29.67R
BERTHOUD PASS  CLOUDY   -11 -20  64 NW28G37   29.58R WCI -40
COTTONWOOD PAS FAIR      16  -9  32 W18G39    29.69S WCI  -1
GUNNISON       FAIR       6   1  80 CALM      29.89R
KREMMLING      CLOUDY    10   3  72 SE5       29.90R WCI   2
LEADVILLE      FAIR       6 -12  43 VRB7      29.74R WCI  -6
SALIDA         FAIR      24  -1  34 SW18G26   29.86S WCI  10
SUNLIGHT       NOT AVBL
WILKERSON PASS FAIR       3 -13  47 W14G23    29.64R WCI -15
$$

COZ069>075-261600-
...SAN LUIS VALLEY/SANGRE DE CRISTO MOUNTAINS...

CITY           SKY/WX    TMP DP  RH WIND       PRES   REMARKS
ALAMOSA        FAIR      21   7  54 NW6       29.84R WCI  13
LA VETA PASS   CLOUDY    12   5  73 S13G24    29.75R WCI  -3
SAGUACHE       FAIR      19   5  53 NW14      29.84S WCI   6
$$

COZ035-036-038>040-261600-
...NORTHERN COLORADO FRONT RANGE...

CITY           SKY/WX    TMP DP  RH WIND       PRES   REMARKS
DENVER INTL AP FAIR      20   8  60 SE12      29.79R WCI   8
DMNS CITY PARK   N/A     23   6  48 S5        29.80R WCI  17
AURORA         MOSUNNY   21   5  51 S6        29.79R WCI  13
FRONT RANGE AP SUNNY     23  10  58 S7        29.80R WCI  15
ERIE MUNI ARPT FAIR      24   8  51 CALM      29.80R
BOULDER MUN AP FAIR      23   9  54 CALM      29.79R
CENTENNIAL     FAIR      22   3  44 S8        29.78R WCI  12
BROOMFIELD     SUNNY     25   7  46 S7        29.78R WCI  17
FORT COLLINS   FAIR      20  11  68 SE5       29.82R WCI  13
LONGMONT       FAIR      23  11  60 CALM      29.82R
$$

COZ041-046-047-076>085-087-088-261600-
...PIKES PEAK/PALMER DIVIDE AND SOUTHERN FOOTHILLS...

CITY           SKY/WX    TMP DP  RH WIND       PRES   REMARKS
COLO. SPRINGS  FAIR      25   0  33 NE5       29.79R WCI  19
A. F. ACADEMY  FAIR      25   0  33 SE6       29.76R WCI  18
SCHRIEVER AFB  FAIR      25  -1  33 NE7       29.79R WCI  17
ELLICOTT       NOT AVBL
FALCON         FAIR      23  -2  33 S5        29.78R WCI  17
FORT CARSON    FAIR      23   1  38 N5        29.79R WCI  17
LIMON          FAIR      17  10  74 CALM      29.82R
MONUMENT HILL  FAIR      18   3  53 S6        29.77R WCI   9
TRINIDAD       FAIR      23   6  48 CALM      29.84R
$$

COZ042>045-048>051-090-091-261600-
...NORTHEAST COLORADO...

CITY           SKY/WX    TMP DP  RH WIND       PRES   REMARKS
GREELEY ARPT   FAIR      18  12  77 CALM      29.85R
AKRON          FAIR      23  10  57 CALM      29.84R
BURLINGTON     FAIR      19  10  68 W5        29.88R WCI  12
WRAY           NOT AVBL
STERLING       FAIR      19  10  68 CALM      29.86R
HOLYOKE        FAIR      21  14  73 W6        29.88R WCI  14
FORT MORGAN    FAIR      19  13  78 CALM      29.85R
$$

COZ086-089-092>099-261600-
...SOUTHEAST COLORADO...

CITY           SKY/WX    TMP DP  RH WIND       PRES   REMARKS
PUEBLO         FAIR      22   4  46 E3        29.84R
LA JUNTA       FAIR      22   8  55 MISG      29.88R
LAMAR          FAIR      19   6  57 CALM      29.89R
SPRINGFIELD      N/A     31   8  38 NW3       29.86R
$$




USA.gov is the U.S. government's official web portal to all federal, state and local government web resources and services.